DELTA 1 DEB, 7164

Orbit data source: Space-Track

DELTA 1 DEB, 7164 is space debris in SSO originally from a launch on Tue, 06 Nov 1973 UTC launched from the Air Force Western Test Range (AFWTR). Debris objects in space refer to the collection of defunct objects orbiting the Earth. Examples of debris include non-operational satellites, rocket bodies, and fragments generated from explosions, collisions, or faulty payload assembly.

Loading next visibility...
Identifier
7164, 1973-086EC
Orbit
SSO
Country
Flag of USUS
Related business
Manufacturer
Unknown
Mission
Spacecraft
Bus & Motor
Unknown
Mass
Unknown
Launch date (UTC)
1973-11-06 (53 years ago)
Launch vehicle
Unknown
Launch site
Air Force Western Test Range (AFWTR)
Object type
Payload
Rocket body
Debris
Shape & HBR
Unknown shape, 0.3 m
Radar Cross Section
Small (<0.1 m²)

Expand to show TLE details & history
Last TLE update: 10 hours ago

TLE from 10 hours ago
0 DELTA 1 DEB
1  7164U 73086EC  26133.37473924  .00000264  00000-0  14061-2 0  9992
2  7164 101.0638 164.8085 0081653 299.7361  71.4623 12.76347169434315
Epoch: 2026-05-13T08:59Z
TLE epoch observation values (Epoch: 2026-05-13T08:59:37.470Z)
Latitude
11.82124°
Longitude
156.4329°
Altitude
1,338.46 km
Speed
7.199 km/s
True Right ascension
10h 49m 53s
True Declination
11° 45' 28"
Sunlit
Object was in daylight at epoch
Visualization orbit readout
Latitude
Unknown
Longitude
Unknown
Altitude
Unknown
Speed
Unknown
Apparent Right ascension
Unknown
Apparent Declination
Unknown
Sunlit
N/A
Visualization observer readout
Local Sidereal Time
02:57:07
Azimuth
Unknown
Elevation
Unknown
Doppler factor
Unknown
Orbital elements
Apogee altitude
1,416.797 km
Perigee altitude
1,290.532 km
Semi-major axis
7,731.801 km
Eccentricity
0.00817
Inclination
101.0638°
RAAN
164.8085°
Arg. of periapsis
299.7361°
True anomaly
72.35228°
Mean anomaly
71.4623°
Eccentric anomaly
71.907°
Mean motion
3.19244 °/min
Orbital period
112.77 mins
BSTAR
0.0014061
Loading maneuver chart data...
Computing Atmospheric mass density...
Loading historical data...
Loading historical data...
Loading historical data...
Loading historical data...
Loading historical data...
Loading historical data...
Loading historical data...

Documentation

Showing up to 5 results
|